Flag for Spain Weather past 2 weeks in Santa Cruz de Tenerife, Canary Islands, Spain

Now
66 °F

Passing clouds.


Feels Like: 66 °F
Forecast: 66 / 71 °F
Wind: 10 mph from Northeast

Location: Tenerife Sur

Current Time: Dec 18, 2014 at 4:14:59 AM

Latest Report: Dec 18, 2014 at 3:30 AM


Visibility: N/A

Pressure: 30.24 "Hg

Humidity: 64%

Dew point: 54 °F

Location of Santa Cruz de TenerifeLocation

Historic Weather in Santa Cruz de Tenerife — Graph

°F

Santa Cruz de Tenerife temperature yesterday

Maximum temperature yesterday: 73 °F (at 1:30 PM)
Minimum temperature yesterday: 64 °F (at 2:00 AM)
Average temperature yesterday: 67 °F

Past Weeks' High & Low Weather Summary

 TemperatureHumidityPressure
High79 °F (Dec 9, 2:30 PM)83% (Dec 8, 6:30 PM)30.39 "Hg (Dec 8, 6:30 PM)
Low57 °F (Dec 15, 4:00 AM)12% (Dec 10, 5:00 AM)30.04 "Hg (Dec 3, 4:00 AM)
Average67 °F61%30.22 "Hg
* Reported Dec 3 3:00 AM — Dec 18 3:00 AM, Santa Cruz de Tenerife, Weather by CustomWeather, © 2014

Note: Actual official high and low records may vary slightly from our data, if they occured in-between our weather recording intervals... More about our weather records

Advertising

Santa Cruz de Tenerife weather history for previous 24 hours

 ConditionsComfort  
Time TempWeatherWind HumidityBarometerVisibility
3:00 AM
Dec 18
66 °FPassing clouds.13 mph68%30.24 "HgN/A
2:30 AM66 °FPassing clouds.13 mph68%30.24 "HgN/A
2:00 AM66 °FPassing clouds.14 mph73%30.24 "HgN/A
1:30 AM66 °FPassing clouds.16 mph73%30.24 "HgN/A
1:00 AM66 °FPassing clouds.15 mph73%30.24 "HgN/A
12:30 AM66 °FPassing clouds.10 mph73%30.24 "HgN/A
12:00 AM66 °FPassing clouds.10 mph73%30.27 "HgN/A
11:30 PM
Dec 17
66 °FPassing clouds.16 mph73%30.27 "HgN/A
11:00 PM66 °FPassing clouds.12 mph73%30.27 "HgN/A
10:30 PM66 °FPassing clouds.12 mph68%30.27 "HgN/A
10:00 PM66 °FPassing clouds.13 mph73%30.27 "HgN/A
9:30 PM66 °FPassing clouds.12 mph73%30.27 "HgN/A
9:00 PM66 °FPassing clouds.13 mph73%30.27 "HgN/A
8:30 PM66 °FPassing clouds.14 mph73%30.27 "HgN/A
8:00 PM66 °FPassing clouds.13 mph78%30.27 "HgN/A
7:30 PM66 °FPassing clouds.18 mph78%30.24 "HgN/A
7:00 PM66 °FPassing clouds.13 mph73%30.24 "HgN/A
6:30 PM66 °FPassing clouds.14 mph78%30.24 "HgN/A
6:00 PM68 °FScattered clouds.16 mph69%30.24 "HgN/A
5:30 PM68 °FScattered clouds.18 mph69%30.24 "HgN/A
5:00 PM70 °FPartly sunny.21 mph64%30.24 "HgN/A
4:30 PM70 °FScattered clouds.25 mph64%30.24 "HgN/A
4:00 PM70 °FPassing clouds.25 mph69%30.24 "HgN/A
3:30 PM72 °FScattered clouds.22 mph57%30.24 "HgN/A
3:00 PM72 °FScattered clouds.25 mph61%30.24 "HgN/A
2:30 PM72 °FScattered clouds.22 mph65%30.24 "HgN/A
2:00 PM73 °FScattered clouds.23 mph53%30.24 "HgN/A
1:30 PM73 °FScattered clouds.20 mph57%30.27 "HgN/A
1:00 PM72 °FScattered clouds.20 mph57%30.27 "HgN/A
12:30 PM72 °FPartly sunny.17 mph61%30.30 "HgN/A
12:00 PM70 °FScattered clouds.23 mph64%30.30 "HgN/A
11:30 AM72 °FScattered clouds.23 mph65%30.30 "HgN/A
11:00 AM72 °FPartly sunny.23 mph57%30.30 "HgN/A
10:30 AM72 °FPartly sunny.21 mph57%30.30 "HgN/A
10:00 AM70 °FPartly sunny.15 mph64%30.30 "HgN/A
9:30 AM68 °FPartly sunny.12 mph64%30.30 "HgN/A
9:00 AM68 °FScattered clouds.10 mph60%30.30 "HgN/A
8:30 AM64 °FPassing clouds.9 mph64%30.30 "HgN/A
8:00 AM64 °FPassing clouds.8 mph64%30.27 "HgN/A
7:30 AM64 °FPassing clouds.12 mph68%30.27 "HgN/A
7:00 AM64 °FPassing clouds.12 mph73%30.27 "HgN/A
6:30 AM64 °FPassing clouds.9 mph78%30.27 "HgN/A
6:00 AM64 °FPassing clouds.14 mph78%30.27 "HgN/A
5:30 AM64 °FPassing clouds.7 mph78%30.27 "HgN/A
5:00 AM64 °FPassing clouds.8 mph68%30.27 "HgN/A
4:30 AM64 °FPassing clouds.8 mph73%30.30 "HgN/A
4:00 AM64 °FPassing clouds.8 mph73%30.30 "HgN/A
Weather by CustomWeather, © 2014

See weather overviewHow to use our weather pages